Location: AstroGeek's Observatory
(41.9520°N, 70.9880°W)
Time: 14:29:02
(UTC-04:00)

ISS - All Passes

Search period start: 20 August 2014 00:00
Search period end: 30 August 2014 00:00
Orbit: 413 x 419 km, 51.6° (Epoch: 20 August)

Date Brightness Start Highest point End Pass type
(mag) Time Alt. Az. Time Alt. Az. Time Alt. Az.
20 Aug - 13:53:48 10° S 13:56:16 20° SE 13:58:44 10° E daylight
20 Aug - 15:29:30 10° WSW 15:32:45 52° NNW 15:36:01 10° NE daylight
20 Aug - 17:07:42 10° NW 17:10:04 18° N 17:12:25 10° NE daylight
20 Aug - 18:45:26 10° NW 18:47:44 17° N 18:50:03 10° NE daylight
20 Aug - 20:21:51 10° NW 20:25:05 46° NNE 20:28:19 10° ESE visible
20 Aug - 21:58:58 10° W 22:01:39 23° SW 22:04:19 10° S visible
21 Aug - 13:06:53 10° SSE 13:07:58 11° SE 13:09:04 10° ESE daylight
21 Aug - 14:40:55 10° SW 14:44:14 86° NNW 14:47:34 10° NE daylight
21 Aug - 16:18:44 10° WNW 16:21:21 21° NNW 16:23:58 10° NE daylight
21 Aug - 17:56:52 10° NW 17:59:00 16° N 18:01:08 10° NE daylight
21 Aug - 19:33:27 10° NW 19:36:30 32° NNE 19:39:32 10° E daylight
21 Aug - 21:10:08 10° WNW 21:13:16 39° SW 21:16:24 10° SSE visible
22 Aug - 13:52:31 10° SW 13:55:45 54° SE 13:59:01 10° ENE daylight
22 Aug - 15:29:47 10° W 15:32:40 26° NNW 15:35:33 10° NE daylight
22 Aug - 17:08:09 10° NW 17:10:14 15° N 17:12:19 10° NE daylight
22 Aug - 18:45:03 10° NW 18:47:50 24° NNE 18:50:37 10° ENE daylight
22 Aug - 20:21:30 10° WNW 20:24:50 69° SW 20:28:08 10° SE visible
23 Aug - 13:04:22 10° SSW 13:07:20 31° SE 13:10:18 10° ENE daylight
23 Aug - 14:40:54 10° W 14:44:01 36° NNW 14:47:08 10° NE daylight
23 Aug - 16:19:16 10° NW 16:21:27 16° N 16:23:38 10° NE daylight
23 Aug - 17:56:36 10° NW 17:59:07 19° NNE 18:01:37 10° ENE daylight
23 Aug - 19:32:59 10° NW 19:36:19 70° NNE 19:39:38 10° ESE daylight
23 Aug - 21:10:47 10° W 21:12:40 14° SW 21:14:33 10° SSW visible
24 Aug - 12:16:37 10° S 12:18:57 18° SE 12:21:18 10° E daylight
24 Aug - 13:52:08 10° WSW 13:55:24 56° NNW 13:58:41 10° NE daylight
24 Aug - 15:30:17 10° WNW 15:32:40 18° NNW 15:35:04 10° NE daylight
24 Aug - 17:08:05 10° NW 17:10:21 17° N 17:12:37 10° NE daylight
24 Aug - 18:44:30 10° NW 18:47:43 43° NNE 18:50:55 10° ESE daylight
24 Aug - 20:21:32 10° WNW 20:24:18 24° SW 20:27:04 10° S visible
25 Aug - 11:30:06 10° SE 11:30:36 10° SE 11:31:07 10° ESE daylight
25 Aug - 13:03:31 10° SW 13:06:50 88° SE 13:10:10 10° NE daylight
25 Aug - 14:41:15 10° WNW 14:43:55 22° NNW 14:46:34 10° NE daylight
25 Aug - 16:19:26 10° NW 16:21:33 16° N 16:23:39 10° NE daylight
25 Aug - 17:56:03 10° NW 17:59:03 30° NNE 18:02:03 10° E daylight
25 Aug - 19:32:41 10° WNW 19:35:52 42° SW 19:39:02 10° SSE daylight
26 Aug - 12:15:05 10° SW 12:18:18 49° SE 12:21:32 10° ENE daylight
26 Aug - 13:52:15 10° W 13:55:10 28° NNW 13:58:06 10° NE daylight
26 Aug - 15:30:38 10° NW 15:32:43 15° N 15:34:48 10° NE daylight
26 Aug - 17:07:35 10° NW 17:10:20 23° NNE 17:13:04 10° ENE daylight
26 Aug - 18:44:01 10° WNW 18:47:21 76° SW 18:50:40 10° SE daylight
27 Aug - 11:26:56 10° SSW 11:29:49 28° SE 11:32:44 10° ENE daylight
27 Aug - 13:03:19 10° W 13:06:28 39° NNW 13:09:37 10° NE daylight
27 Aug - 14:41:40 10° NW 14:43:53 16° N 14:46:05 10° NE daylight
27 Aug - 16:19:05 10° NW 16:21:32 19° NNE 16:24:00 10° ENE daylight
27 Aug - 17:55:27 10° NW 17:58:46 64° NNE 18:02:04 10° ESE daylight
27 Aug - 19:33:05 10° W 19:35:09 16° SW 19:37:13 10° S daylight
28 Aug - 10:39:12 10° S 10:41:23 17° SE 10:43:35 10° E daylight
28 Aug - 12:14:31 10° WSW 12:17:48 61° NNW 12:21:06 10° NE daylight
28 Aug - 13:52:37 10° WNW 13:55:03 19° NNW 13:57:28 10° NE daylight
28 Aug - 15:30:29 10° NW 15:32:43 17° N 15:34:56 10° NE daylight
28 Aug - 17:06:55 10° NW 17:10:06 40° NNE 17:13:16 10° E daylight
28 Aug - 18:43:52 10° WNW 18:46:43 26° SW 18:49:34 10° SSE daylight
29 Aug - 11:25:52 10° SW 11:29:11 80° SE 11:32:31 10° ENE daylight
29 Aug - 13:03:31 10° WNW 13:06:13 22° NNW 13:08:56 10° NE daylight
29 Aug - 14:41:45 10° NW 14:43:50 15° N 14:45:56 10° NE daylight
29 Aug - 16:18:24 10° NW 16:21:22 29° NNE 16:24:19 10° E daylight
29 Aug - 17:55:00 10° WNW 17:58:13 46° SW 18:01:24 10° SE daylight
